This is the latest recevied weather packets stored in our database for station/object AI5BL. If no packets are shown the sender has not sent any weather packets the latest 10 day(s).
| Time | Temp. | Humidity | Pressure | Rain* | Wind** | Luminosity | Snow |
|---|---|---|---|---|---|---|---|
| 1778024096 | 24.44° C | 74% | 1013.8 hPa | 0 mm | - | 37 W/m² | - |
| 1778021370 | 25° C | 71% | 1013.7 hPa | 0 mm | - | 107 W/m² | - |
| 1778020764 | 25° C | 71% | 1013.8 hPa | 0 mm | - | 72 W/m² | - |
| 1778019854 | 25° C | 71% | 1013.7 hPa | 0 mm | - | 92 W/m² | - |
| 1778018641 | 25.56° C | 69% | 1013.5 hPa | 0 mm | - | 141 W/m² | - |
| 1778018339 | 25.56° C | 67% | 1013.7 hPa | 0 mm | - | 123 W/m² | - |
| 1778018037 | 25.56° C | 69% | 1013.6 hPa | 0 mm | - | 107 W/m² | - |
| 1778017432 | 25.56° C | 68% | 1013.6 hPa | 0 mm | - | 153 W/m² | - |
| 1778017129 | 25.56° C | 69% | 1013.7 hPa | 0 mm | - | 174 W/m² | - |
| 1778016827 | 26.11° C | 67% | 1013.8 hPa | 0 mm | - | 150 W/m² | - |
| 1778016220 | 26.11° C | 63% | 1013.7 hPa | 0 mm | - | 137 W/m² | - |
| 1778015614 | 26.11° C | 66% | 1013.7 hPa | 0 mm | - | 208 W/m² | - |
| 1778015310 | 26.11° C | 66% | 1013.7 hPa | 0 mm | - | 216 W/m² | - |
| 1778015007 | 26.11° C | 71% | 1013.5 hPa | 0 mm | - | 235 W/m² | - |
| 1778013493 | 25.56° C | 67% | 1013.6 hPa | 0 mm | - | 242 W/m² | - |
| 1778013190 | 26.11° C | 63% | 1013.8 hPa | 0 mm | - | 184 W/m² | - |
| 1778012886 | 26.11° C | 63% | 1013.8 hPa | 0 mm | - | 196 W/m² | - |
| 1778012582 | 26.11° C | 68% | 1014 hPa | 0 mm | - | 194 W/m² | - |
| 1778012279 | 26.11° C | 65% | 1013.8 hPa | 0 mm | - | 255 W/m² | - |
| 1778011976 | 26.11° C | 69% | 1014 hPa | 0 mm | - | 256 W/m² | - |
| 1778011675 | 26.11° C | 67% | 1014 hPa | 0 mm | - | 212 W/m² | - |
| 1778011372 | 25.56° C | 70% | 1014.3 hPa | 0 mm | - | 204 W/m² | - |
| 1778011067 | 26.11° C | 65% | 1014.2 hPa | 0 mm | - | 157 W/m² | - |
| 1778010765 | 26.67° C | 64% | 1014.3 hPa | 0 mm | - | 198 W/m² | - |
| 1778010158 | 26.67° C | 67% | 1014.3 hPa | 0 mm | - | 272 W/m² | - |
* Rain latest hour (hover to see other rain measurements)
** Current wind speed in m/s (hover to see current wind gust speed)